St. Petersburg Airport, FL

8:58 PM EDT on October 21, 2017 (GMT -0400)
Saint Petersburg-Clearwater International

Weather History for KPIE - June, 2017

Change the Weather History Date:

Monday, June 19, 2017

  Actual Average Record
Temperature  
Mean Temperature 80 °F -  
Max Temperature 86 °F 89 °F 99 °F (2000)
Min Temperature 77 °F 75 °F 70 °F (1955)
Cooling Degree Days 16    
Growing Degree Days 30 (Base 50)    
Moisture  
Dew Point 74 °F    
Average Humidity 83    
Maximum Humidity 88    
Minimum Humidity 69    
Precipitation  
Precipitation 0.21 in - - ()
Sea Level Pressure  
Sea Level Pressure 29.98 in    
Wind  
Wind Speed 9 mph (ESE)    
Max Wind Speed 23 mph    
Max Gust Speed 36 mph    
Visibility 9 miles    
Events Rain , Thunderstorm    
Averages and records for this station are not official NWS values.
T = Trace of Precipitation, MM = Missing Value Source: NWS Daily Summary

Daily Weather History Graph

Daily Weather History Graph

Search for Another Location

Airport or City:

Trip Planner

Search our weather history database for the weather conditions in past years. The results will help you decide how hot, cold, wet, or windy it might be!

Date:

Astronomy

Jun. 19, 2017 Rise Set
Actual Time 6:34 AM EDT 8:29 PM EDT
Civil Twilight 6:08 AM EDT 8:56 PM EDT
Nautical Twilight 5:35 AM EDT 9:28 PM EDT
Astronomical Twilight 5:01 AM EDT 10:02 PM EDT
Moon 2:55 AM EDT (6/19) 3:44 PM EDT (6/19)
Length of Visible Light 14h 48m
Length of Day
13h 54m
Waning Crescent, 27% of the Moon is Illuminated
Jun 19
Waning Crescent
Jun 23
New
Jun 30
First Quarter
Jul 9
Full
Jul 16
Last Quarter

Hourly Weather History & Observations

Time (EDT) Temp. Heat Index Dew Point Humidity Pressure Visibility Wind Dir Wind Speed Gust Speed Precip Events Conditions
1:53 AM 79.0 °F - 73.0 °F 82% 29.99 in 10.0 mi SE 5.8 mph - N/A   Clear
2:53 AM 79.0 °F - 73.0 °F 82% 29.97 in 10.0 mi ESE 6.9 mph - N/A   Scattered Clouds
3:53 AM 78.1 °F - 73.9 °F 87% 29.95 in 10.0 mi ESE 5.8 mph - N/A   Mostly Cloudy
4:35 AM 78.1 °F - 73.9 °F 87% 29.94 in 10.0 mi ENE 8.1 mph - N/A   Mostly Cloudy
4:43 AM 78.1 °F - 73.9 °F 87% 29.94 in 10.0 mi ENE 8.1 mph - N/A   Scattered Clouds
4:53 AM 78.1 °F - 73.9 °F 87% 29.94 in 10.0 mi ENE 5.8 mph - N/A   Scattered Clouds
5:08 AM 79.0 °F - 73.9 °F 84% 29.94 in 10.0 mi ENE 10.4 mph - N/A   Mostly Cloudy
5:41 AM 79.0 °F - 73.9 °F 84% 29.94 in 10.0 mi East 8.1 mph - N/A   Mostly Cloudy
5:53 AM 79.0 °F - 73.9 °F 84% 29.94 in 10.0 mi East 8.1 mph - N/A   Scattered Clouds
6:23 AM 79.0 °F - 73.9 °F 84% 29.94 in 10.0 mi East 11.5 mph - N/A   Partly Cloudy
6:53 AM 79.0 °F - 73.9 °F 84% 29.94 in 10.0 mi East 8.1 mph - N/A   Clear
7:53 AM 79.0 °F - 73.9 °F 84% 29.97 in 10.0 mi ESE 10.4 mph - N/A   Partly Cloudy
8:53 AM 79.0 °F - 73.0 °F 82% 29.99 in 10.0 mi ESE 8.1 mph - 0.00 in   Overcast
9:53 AM 80.1 °F 84.5 °F 73.9 °F 81% 29.99 in 10.0 mi ESE 11.5 mph - N/A   Scattered Clouds
10:53 AM 82.0 °F 87.9 °F 73.9 °F 76% 30.00 in 10.0 mi ESE 10.4 mph - N/A   Mostly Cloudy
11:53 AM 82.9 °F 88.8 °F 73.0 °F 72% 30.00 in 10.0 mi ESE 11.5 mph - N/A   Partly Cloudy
12:53 PM 84.0 °F 91.2 °F 73.9 °F 72% 29.99 in 10.0 mi ESE 13.8 mph - 0.00 in   Partly Cloudy
1:33 PM 84.9 °F 92.1 °F 73.9 °F 69% 29.97 in 10.0 mi ESE 8.1 mph - N/A   Mostly Cloudy
1:53 PM 84.9 °F 92.1 °F 73.9 °F 69% 29.97 in 10.0 mi SE 9.2 mph - N/A   Scattered Clouds
2:53 PM 80.1 °F 83.8 °F 72.0 °F 76% 29.98 in 3.0 mi SE 23.0 mph 35.7 mph N/A   Mostly Cloudy
3:04 PM 77.0 °F - 73.0 °F 88% 29.99 in 3.0 mi SSE 18.4 mph 31.1 mph 0.06 in Rain Heavy Rain
3:14 PM 77.0 °F - 73.0 °F 88% 30.00 in 3.0 mi South 17.3 mph 25.3 mph 0.13 in Rain , Thunderstorm Heavy Rain
3:29 PM 77.0 °F - 73.0 °F 88% 29.99 in 3.0 mi South 9.2 mph - 0.20 in Rain Light Rain
3:38 PM 78.1 °F - 73.9 °F 87% 29.99 in 6.0 mi South 9.2 mph - 0.20 in Rain Light Rain
3:53 PM 78.1 °F - 73.9 °F 87% 29.99 in 10.0 mi South 8.1 mph - 0.20 in Rain Light Rain
4:53 PM 79.0 °F - 73.9 °F 84% 29.97 in 10.0 mi SE 9.2 mph - 0.01 in   Overcast
5:53 PM 80.1 °F 84.5 °F 73.9 °F 81% 29.97 in 10.0 mi ESE 12.7 mph - N/A   Mostly Cloudy
6:53 PM 80.1 °F 85.1 °F 75.0 °F 85% 29.98 in 10.0 mi East 6.9 mph - N/A   Scattered Clouds
7:53 PM 79.0 °F - 75.0 °F 88% 29.99 in 10.0 mi East 6.9 mph - N/A   Scattered Clouds
8:53 PM 79.0 °F - 73.9 °F 84% 30.00 in 10.0 mi East 8.1 mph - N/A   Partly Cloudy
9:53 PM 79.0 °F - 73.0 °F 82% 30.01 in 10.0 mi East 5.8 mph - N/A   Clear
10:53 PM 79.0 °F - 75.0 °F 88% 30.02 in 10.0 mi East 5.8 mph - N/A   Clear
11:38 PM 80.1 °F 84.5 °F 73.9 °F 81% 30.02 in 10.0 mi East 8.1 mph - N/A   Partly Cloudy
11:53 PM 80.1 °F 84.5 °F 73.9 °F 81% 30.02 in 10.0 mi East 5.8 mph - N/A   Clear